COSMOS 1275 DEB, 13803

Orbit data source: Space-Track

COSMOS 1275 DEB, 13803 is space debris in LEO originally from a launch on Thu, 04 Jun 1981 UTC launched from the Plesetsk Missile And Space Complex (PKMTR). Debris objects in space refer to the collection of defunct objects orbiting the Earth. Examples of debris include non-operational satellites, rocket bodies, and fragments generated from explosions, collisions, or faulty payload assembly.

Loading next visibility...
Identifier
13803, 1981-053GX
Orbit
LEO
Country
Flag of CISCIS
Related business
Manufacturer
Unknown
Mission
Spacecraft
Bus & Motor
Unknown
Mass
Unknown
Launch date (UTC)
1981-06-04 (45 years ago)
Launch vehicle
Unknown
Launch site
Plesetsk Missile And Space Complex (PKMTR)
Object type
Payload
Rocket body
Debris
Shape & HBR
Unknown shape, 0.1 m
Radar Cross Section
Medium (>0.1 m² and <1 m²)

Expand to show TLE details & history
Last TLE update: 2 days ago

TLE from 2 days ago
0 COSMOS 1275 DEB
1 13803U 81053GX  26171.33593609  .00001301  00000-0  69620-3 0  9998
2 13803  82.8134 115.5621 0038985 246.5240 276.6110 14.12091158213315
Epoch: 2026-06-20T08:03Z
TLE epoch observation values (Epoch: 2026-06-20T08:03:44.878Z)
Latitude
17.15597°
Longitude
-96.14598°
Altitude
851.427 km
Speed
7.43 km/s
True Right ascension
19h 33m 22s
True Declination
17° 03' 38"
Sunlit
Object was in full shadow at epoch
Visualization orbit readout
Latitude
Unknown
Longitude
Unknown
Altitude
Unknown
Speed
Unknown
Apparent Right ascension
Unknown
Apparent Declination
Unknown
Sunlit
N/A
Visualization observer readout
Local Sidereal Time
01:06:55
Azimuth
Unknown
Elevation
Unknown
Doppler factor
Unknown
Orbital elements
Apogee altitude
877.504 km
Perigee altitude
821.151 km
Semi-major axis
7,227.464 km
Eccentricity
0.0039
Inclination
82.8134°
RAAN
115.5621°
Arg. of periapsis
246.524°
True anomaly
276.16699°
Mean anomaly
276.611°
Eccentric anomaly
276.38902°
Mean motion
3.53235 °/min
Orbital period
101.92 mins
BSTAR
0.0006962
Loading maneuver chart data...
Computing Atmospheric mass density...

Documentation

Showing up to 5 results
|